Regional Weather Roundup
Issued by NWS Cleveland, OH

Home | Current Version | Previous Version | Text Only | Print | Product List | Glossary Off
Versions: 1 2 3 4 5 6 7 8 9 10 11 12 13 14 15 16 17 18 19 20 21 22 23 24 25 26 27 28 29 30 31 32 33 34 35 36 37 38 39 40 41 42 43 44 45 46 47 48 49 50

000
ASUS41 KCLE 200110
RWRCLE
OHIO REGIONAL WEATHER ROUNDUP
NATIONAL WEATHER SERVICE WILMINGTON, OH
800 PM EST FRI DEC 19 2014

NOTE: "FAIR" INDICATES FEW OR NO CLOUDS BELOW 12,000 FEET WITH NO
SIGNIFICANT WEATHER AND/OR OBSTRUCTIONS TO VISIBILITY.

OHZ001>008-015>018-024>027-034-035-043-044-200200-
   NORTHWEST OHIO

CITY           SKY/WX    TMP DP  RH WIND       PRES   REMARKS
DEFIANCE       CLEAR     27  21  78 CALM      30.29F
FINDLAY        CLOUDY    31  22  69 CALM      30.29F
TOLEDO EXPRESS CLOUDY    30  22  72 CALM      30.30F
TOLEDO METCALF CLOUDY    30  25  81 CALM      30.32F
LIMA           CLOUDY    32  23  69 CALM      30.27F
$$

OHZ009>014-019>023-028>033-038-089-200200-
   NORTHEAST OHIO

CITY           SKY/WX    TMP DP  RH WIND       PRES   REMARKS
CLE-HOPKINS    CLOUDY    29  21  72 W9        30.35R WCI  20
CLE-LAKEFRONT  CLOUDY    31  21  66 W9        30.32R WCI  23
CUY CO. ARPT   CLOUDY    32  23  69 W10       30.32R WCI  24
LORAIN-ELYRIA  CLOUDY    29  22  75 NW5       30.33R WCI  24
ASHTABULA      CLOUDY    29  20  69 W8        30.30R WCI  21
AKRON-CANTON   CLOUDY    30  22  72 W7        30.28R WCI  23
WOOSTER        CLOUDY    29  23  78 NW5       30.30R WCI  24
MANSFIELD      CLOUDY    28  22  78 CALM      30.28S
YOUNGSTOWN     CLOUDY    28  20  71 NW9       30.27R WCI  19
$$

OHZ042-051>053-060>062-070>072-077>081-200200-
  SOUTHWEST OHIO

CITY           SKY/WX    TMP DP  RH WIND       PRES   REMARKS
CINC-COVINGTON CLOUDY    30  20  66 NW3       30.29R
CINC-LUNKEN    CLOUDY    31  22  69 CALM      30.32S
HAMILTON       CLOUDY    31  24  75 CALM      30.31S
DAYTON         CLOUDY    30  24  78 N3        30.28F
WRIGHT-PAT AFB CLOUDY    30  22  71 VRB2      30.29F
DAYTON GENERAL CLOUDY    30  22  72 NE3       30.27F
WILMINGTON     CLOUDY    29  21  72 NE5       30.28S WCI  24
$$

OHZ036-037-039>041-045>050-054>059-063>069-073>076-082>088-200200-
  CENTRAL AND SOUTHEAST OHIO

CITY           SKY/WX    TMP DP  RH WIND       PRES   REMARKS
COLUMBUS       CLOUDY    30  22  72 N6        30.29F WCI  24
OSU AIRPORT    CLOUDY    30  22  72 NW6       30.29F WCI  24
BOLTON FIELD   CLOUDY    30  24  78 MISG      30.30F
RICKENBACK AFB CLOUDY    30  24  77 CALM      30.30S
NEWARK         CLOUDY    31  23  72 CALM      30.29F
MARION         CLOUDY    30  21  69 CALM      30.30F
LANCASTER      CLOUDY    33  24  69 N3        30.30F
ZANESVILLE     CLOUDY    30  22  72 CALM      30.29S
NEW PHILLY     CLOUDY    31  22  69 W5        30.31R WCI  26
$$



USA.gov is the U.S. government's official web portal to all federal, state and local government web resources and services.